Change the Weather History Date:

Tuesday, August 6, 2013

  Actual Average (KDUJ) Record (KDUJ)
Temperature  
Mean Temperature 64 °F 68 °F  
Max Temperature 80 °F 78 °F 90 °F (1962)
Min Temperature 48 °F 58 °F 42 °F (1994)
Degree Days  
Heating Degree Days 2 1  
Month to date heating degree days 6  
Since 1 June heating degree days 115  
Since 1 July heating degree days 30  
Cooling Degree Days 0 4  
Month to date cooling degree days 24  
Year to date cooling degree days 249  
Since 1 June cooling degree days 226  
Growing Degree Days 14 (Base 50)    
Moisture  
Dew Point 52 °F    
Average Humidity 77    
Maximum Humidity 97    
Minimum Humidity 42    
Precipitation  
Precipitation 0.00 in 0.12 in 1.47 in (2011)
Month to date precipitation 0.77  
Sea Level Pressure  
Sea Level Pressure 30.06 in    
Wind  
Wind Speed 4 mph (NE)    
Max Wind Speed 8 mph    
Max Gust Speed -    
Visibility 9 miles    
Events      
T = Trace of Precipitation, MM = Missing Value Source: NWS Daily Summary

Daily Weather History Graph

Daily Weather History Graph

Search for Another Location

Airport or City:

Trip Planner

Search our weather history database for the weather conditions in past years. The results will help you decide how hot, cold, wet, or windy it might be!

Date:

Astronomy

Aug. 06, 2013 Rise Set
Actual Time 6:14 AM EDT 8:23 PM EDT
Civil Twilight 5:44 AM EDT 8:54 PM EDT
Nautical Twilight 5:06 AM EDT 9:31 PM EDT
Astronomical Twilight 4:25 AM EDT 10:11 PM EDT
Moon 6:04 AM EDT (8/6) 7:56 PM EDT (8/6)
Length of Visible Light 15h 09m
Length of Day
14h 09m
Waning Crescent, 0% of the Moon is Illuminated
Aug 6
Waning Crescent
Aug 6
New
Aug 14
First Quarter
Aug 20
Full
Aug 28
Last Quarter

Hourly Weather History & Observations

Time (EDT) Temp. Dew Point Humidity Pressure Visibility Wind Dir Wind Speed Gust Speed Precip Events Conditions
12:54 AM 52.0 °F 50.0 °F 93% 30.07 in 10.0 mi North 4.6 mph - N/A   Clear
1:54 AM 51.1 °F 48.0 °F 89% 30.07 in 10.0 mi North 4.6 mph - N/A   Clear
2:54 AM 50.0 °F 48.0 °F 93% 30.07 in 10.0 mi North 4.6 mph - N/A   Scattered Clouds
3:54 AM 48.9 °F 46.9 °F 93% 30.07 in 10.0 mi North 3.5 mph - N/A   Clear
4:27 AM 48.2 °F 46.4 °F 93% 30.07 in 10.0 mi North 3.5 mph - N/A   Partly Cloudy
4:40 AM 48.2 °F 46.4 °F 93% 30.07 in 3.0 mi North 5.8 mph - N/A   Mostly Cloudy
4:54 AM 48.9 °F 48.0 °F 97% 30.07 in 3.0 mi North 5.8 mph - N/A   Overcast
5:31 AM 50.0 °F 48.2 °F 94% 30.07 in 1.8 mi Calm Calm - N/A   Overcast
5:40 AM 50.0 °F 48.2 °F 94% 30.07 in 3.0 mi North 4.6 mph - N/A   Overcast
5:54 AM 50.0 °F 48.0 °F 93% 30.07 in 10.0 mi North 3.5 mph - N/A   Mostly Cloudy
6:03 AM 50.0 °F 48.2 °F 94% 30.08 in 10.0 mi NNE 3.5 mph - N/A   Scattered Clouds
6:54 AM 51.1 °F 50.0 °F 96% 30.07 in 10.0 mi NE 4.6 mph - N/A   Mostly Cloudy
7:54 AM 53.1 °F 51.1 °F 93% 30.07 in 10.0 mi NE 4.6 mph - N/A   Overcast
8:54 AM 59.0 °F 53.1 °F 81% 30.07 in 10.0 mi NE 5.8 mph - N/A   Clear
9:54 AM 64.9 °F 54.0 °F 68% 30.08 in 10.0 mi Variable 3.5 mph - N/A   Clear
10:54 AM 69.1 °F 54.0 °F 58% 30.08 in 10.0 mi East 3.5 mph - N/A   Clear
11:54 AM 73.0 °F 55.9 °F 55% 30.07 in 10.0 mi Calm Calm - N/A   Partly Cloudy
12:54 PM 77.0 °F 54.0 °F 45% 30.06 in 10.0 mi Variable 3.5 mph - N/A   Mostly Cloudy
1:54 PM 72.0 °F 55.0 °F 55% 30.06 in 10.0 mi SSW 3.5 mph - N/A   Overcast
2:54 PM 73.9 °F 54.0 °F 50% 30.05 in 10.0 mi East 5.8 mph - N/A   Mostly Cloudy
3:54 PM 79.0 °F 54.0 °F 42% 30.04 in 10.0 mi Variable 5.8 mph - N/A   Partly Cloudy
4:54 PM 77.0 °F 55.0 °F 47% 30.05 in 10.0 mi Variable 5.8 mph - N/A   Clear
5:54 PM 75.0 °F 57.9 °F 55% 30.04 in 10.0 mi ESE 8.1 mph - N/A   Scattered Clouds
6:54 PM 72.0 °F 59.0 °F 64% 30.04 in 10.0 mi Variable 6.9 mph - N/A   Clear
7:54 PM 69.1 °F 57.0 °F 65% 30.06 in 10.0 mi SE 6.9 mph - N/A   Clear
8:54 PM 66.0 °F 57.9 °F 75% 30.06 in 10.0 mi East 5.8 mph - N/A   Clear
9:54 PM 64.0 °F 57.9 °F 80% 30.07 in 10.0 mi East 4.6 mph - N/A   Clear
10:54 PM 62.1 °F 57.9 °F 86% 30.06 in 10.0 mi East 4.6 mph - N/A   Mostly Cloudy
11:54 PM 62.1 °F 57.9 °F 86% 30.06 in 10.0 mi NE 3.5 mph - N/A   Overcast